This is the latest recevied weather packets stored in our database for station/object KE0TNI-13. If no packets are shown the sender has not sent any weather packets the latest 10 day(s).
| Time | Temp. | Humidity | Pressure | Rain* | Wind** | Luminosity | Snow |
|---|---|---|---|---|---|---|---|
| 1777943488 | 4.44° C | 90% | 1015 hPa | 0 mm | - | 31 W/m² | - |
| 1777943188 | 5° C | 90% | 1014.7 hPa | 0 mm | - | 33 W/m² | - |
| 1777942885 | 5° C | 90% | 1014.9 hPa | 0 mm | - | 42 W/m² | - |
| 1777942581 | 5° C | 88% | 1014.7 hPa | 0 mm | - | 54 W/m² | - |
| 1777942278 | 5° C | 88% | 1014.7 hPa | 0 mm | - | 56 W/m² | - |
| 1777941975 | 5° C | 86% | 1014.7 hPa | 0 mm | - | 69 W/m² | - |
| 1777941672 | 5° C | 90% | 1014.7 hPa | 0 mm | - | 117 W/m² | - |
| 1777941369 | 4.44° C | 93% | 1014.4 hPa | 0 mm | - | 144 W/m² | - |
| 1777941067 | 4.44° C | 93% | 1014.7 hPa | 0 mm | - | 93 W/m² | - |
| 1777940762 | 4.44° C | 93% | 1015.2 hPa | 0.51 mm | - | 105 W/m² | - |
| 1777940461 | 3.89° C | 92% | 1014.9 hPa | 1.78 mm | - | 136 W/m² | - |
| 1777940158 | 3.89° C | 92% | 1015.6 hPa | 2.29 mm | - | 82 W/m² | - |
| 1777939855 | 3.89° C | 89% | 1015.8 hPa | 3.05 mm | - | 34 W/m² | - |
| 1777939552 | 3.89° C | 88% | 1016.1 hPa | 3.56 mm | - | 17 W/m² | - |
| 1777939249 | 3.89° C | 89% | 1016.1 hPa | 2.29 mm | - | 17 W/m² | - |
| 1777938946 | 3.89° C | 89% | 1016.2 hPa | 1.78 mm | - | 18 W/m² | - |
| 1777938643 | 3.89° C | 88% | 1015.8 hPa | 1.27 mm | - | 17 W/m² | - |
| 1777938340 | 3.89° C | 88% | 1015.8 hPa | 1.27 mm | - | 14 W/m² | - |
| 1777938037 | 3.89° C | 87% | 1015.4 hPa | 1.27 mm | - | 14 W/m² | - |
| 1777937732 | 3.89° C | 86% | 1015.6 hPa | 1.27 mm | - | 13 W/m² | - |
| 1777937429 | 3.89° C | 86% | 1015.2 hPa | 1.27 mm | - | 15 W/m² | - |
| 1777937126 | 4.44° C | 87% | 1015 hPa | 1.27 mm | - | 23 W/m² | - |
| 1777936824 | 4.44° C | 88% | 1015 hPa | 1.78 mm | - | 19 W/m² | - |
| 1777936520 | 4.44° C | 89% | 1014.9 hPa | 0.51 mm | - | 17 W/m² | - |
| 1777936216 | 5° C | 90% | 1014.8 hPa | 0 mm | - | 21 W/m² | - |
* Rain latest hour (hover to see other rain measurements)
** Current wind speed in m/s (hover to see current wind gust speed)